TimeMDT,TemperatureF,Dew PointF,Humidity,Sea Level PressureIn,VisibilityMPH,Wind Direction,Wind SpeedMPH,Gust SpeedMPH,PrecipitationIn,Events,Conditions,WindDirDegrees,DateUTC
12:53 AM,43.0,34.0,71,30.12,10.0,ENE,12.7,-,0.00,,Overcast,60,2012-10-11 06:53:00
1:27 AM,42.8,33.8,70,30.13,10.0,NE,12.7,-,0.00,,Overcast,50,2012-10-11 07:27:00
1:53 AM,43.0,33.1,68,30.12,10.0,ENE,15.0,-,0.00,,Overcast,60,2012-10-11 07:53:00
2:53 AM,42.1,33.1,70,30.13,10.0,ENE,12.7,-,N/A,,Overcast,60,2012-10-11 08:53:00
3:53 AM,41.0,33.1,73,30.14,10.0,NE,12.7,-,N/A,,Overcast,50,2012-10-11 09:53:00
4:12 AM,41.0,33.8,76,30.16,10.0,ENE,11.5,-,N/A,,Overcast,60,2012-10-11 10:12:00
4:53 AM,41.0,33.1,73,30.14,10.0,ENE,12.7,-,N/A,,Overcast,60,2012-10-11 10:53:00
5:53 AM,39.9,33.1,77,30.18,10.0,ENE,12.7,-,N/A,,Overcast,60,2012-10-11 11:53:00
6:14 AM,39.2,33.8,81,30.19,10.0,ENE,13.8,-,N/A,,Overcast,60,2012-10-11 12:14:00
6:32 AM,39.2,33.8,81,30.20,10.0,NE,13.8,-,N/A,,Overcast,40,2012-10-11 12:32:00
6:41 AM,37.4,33.8,87,30.20,10.0,NE,16.1,-,0.00,,Light Drizzle,40,2012-10-11 12:41:00
6:53 AM,36.0,35.1,97,30.23,4.0,NE,16.1,-,0.00,,Light Drizzle,40,2012-10-11 12:53:00
7:53 AM,35.1,33.1,92,30.26,3.0,NE,12.7,-,0.00,,Overcast,50,2012-10-11 13:53:00
8:53 AM,34.0,32.0,92,30.28,8.0,ENE,16.1,-,N/A,Fog,Overcast,60,2012-10-11 14:53:00
9:53 AM,33.1,30.9,92,30.30,10.0,NE,16.1,-,N/A,,Overcast,50,2012-10-11 15:53:00
10:53 AM,33.1,30.9,92,30.32,8.0,NE,15.0,-,N/A,,Overcast,50,2012-10-11 16:53:00
11:53 AM,34.0,30.9,89,30.31,9.0,NNE,11.5,-,N/A,,Overcast,30,2012-10-11 17:53:00
12:53 PM,34.0,32.0,92,30.30,8.0,NE,11.5,-,N/A,,Overcast,40,2012-10-11 18:53:00
1:18 PM,35.6,32.0,87,30.22,10.0,NE,8.1,-,N/A,,Overcast,40,2012-10-11 19:18:00
1:53 PM,36.0,33.1,89,30.26,10.0,NE,6.9,-,N/A,,Overcast,50,2012-10-11 19:53:00
2:53 PM,37.0,33.1,86,30.24,10.0,NNE,6.9,-,N/A,,Overcast,20,2012-10-11 20:53:00
3:53 PM,37.4,33.8,87,30.17,10.0,NE,5.8,-,N/A,,Overcast,50,2012-10-11 21:53:00
4:53 PM,37.4,33.8,87,30.16,10.0,NE,5.8,-,N/A,,Overcast,50,2012-10-11 22:53:00
5:50 PM,37.4,33.8,87,30.14,10.0,NNE,5.8,-,N/A,,Scattered Clouds,20,2012-10-11 23:50:00
5:53 PM,37.9,34.0,86,30.20,10.0,NNE,3.5,-,N/A,,Scattered Clouds,20,2012-10-11 23:53:00
6:03 PM,37.4,33.8,87,30.14,10.0,NE,3.5,-,N/A,,Mostly Cloudy,40,2012-10-12 00:03:00
6:53 PM,37.4,33.8,87,30.14,10.0,Calm,Calm,-,N/A,,Scattered Clouds,0,2012-10-12 00:53:00
7:53 PM,37.0,34.0,89,30.19,10.0,NNE,3.5,-,N/A,,Partly Cloudy,30,2012-10-12 01:53:00
9:53 PM,33.1,30.9,92,30.17,10.0,NNW,3.5,-,N/A,,Clear,330,2012-10-12 03:53:00
10:53 PM,34.0,32.0,92,30.14,10.0,SW,3.5,-,N/A,,Clear,230,2012-10-12 04:53:00
11:18 PM,33.8,33.8,100,30.05,8.0,SW,3.5,-,N/A,Fog,Scattered Clouds,230,2012-10-12 05:18:00
11:53 PM,34.0,33.1,96,30.12,7.0,WSW,8.1,-,N/A,Fog,Scattered Clouds,240,2012-10-12 05:53:00